STARLINK- 37053

导读

STARLINK-37053(NORAD编号68159)是SpaceX星链(Starlink)星座的卫星之一,属于SpaceX打造的近地轨道宽带互联网星座组成部分。星链星座旨在为全球提供高速、低延迟的宽带互联网服务,支持流媒体传输、在线游戏、远程通信等多种应用场景。该卫星延续星链卫星紧凑平板设计,适配猎鹰9号火箭密集发射部署,大概率配备星间激光通信终端,参与构建全球卫星激光互联网络,助力提升星座数据传输效率与网络覆盖稳定性,服务全球偏远地区及移动场景的互联网接入需求。

基本信息
目录编号:
68159
目录名称:
STARLINK-37053
国际标识:
2026-049T
轨道中心:
EARTH
卫星名称:
STARLINK- 37053
卫星全名:
STARLINK- 37053
卫星状态:
在轨 (已飞行176 天)
发射日期:
2026-03-13 UTC
国别 :
美国 (US)
星等 :
--
轨道信息
数据来源 国际轨道数据 AOE轨道数据
星历时间 2026-09-05T15:30:14+0800
5小时前
查看轨道信息
2026-09-04T21:00:00+0800
23小时前
查看轨道信息
半长轴 6843.674km 6843.67km
偏心率 0.0001395 0.0001589
轨道倾角 97.285° 97.271°
近地点辐角 91.606° 81.834°
升交点赤经 268.489° 267.728°
平近点角 268.534° 344.937°
近地点 464.582km 464.445km
远地点 466.492km 466.621km
周期 93.906分钟 93.906分钟
每日圈数 15.334473 15.334485
详细信息
使用方式:
暂无
2D轨道图
3D轨道图
轨道高度分析图
轨道倾角分析图
轨道综合分析图
查看轨道综合分析图
交会数据列表
事件ID 空间交会对象 最接近时刻(TCA) 交会距离 交会风险概率(CRP) 交会风险指数(CRI) 操作
CDM_260907-043105-322406-815921
2026-09-07T
04:31:08+0000
1.077 km
极远距离
9.176212E-6 低风险 0.54
CDM_260906-232902-058006-815921
HST (20580)
2026-09-06T
23:29:57+0000
1.294 km
极远距离
7.826408E-6 低风险 0.53
CDM_260905-171404-299206-815922
2026-09-05T
17:14:19+0000
2.014 km
极远距离
2.589047E-6 低风险 0.43
CDM_260906-135905-883006-815921
2026-09-06T
13:59:30+0000
2.658 km
极远距离
1.578904E-6 低风险 0.39
CDM_260906-201506-533106-815921
2026-09-06T
20:15:44+0000
2.832 km
极远距离
1.438503E-6 低风险 0.38
CDM_260905-200805-324606-815921
2026-09-05T
20:08:14+0000
2.897 km
极远距离
1.390447E-6 低风险 0.38
CDM_260905-155306-151006-815921
2026-09-05T
15:53:16+0000
2.873 km
极远距离
1.306944E-6 低风险 0.37